Location: Peterborough
(44.3091°N, 78.3197°W)
Time: 16:57:39
(UTC-04:00)

Transit 2A Rocket - Pass Details

Date: 25 March 2023
Orbit: 584 x 914 km, 66.7° (Epoch: 04 June)

Event Time Altitude Azimuth Distance (km) Brightness Sun altitude
Rises 19:37:02 0° 332° (NNW) 3,550 8.9 -1.8°
Reaches altitude 10° 19:40:03 10° 346° (NNW) 2,613 8.0 -2.3°
Maximum altitude 19:45:02 25° 40° (NE) 1,744 6.6 -3.2°
Drops below altitude 10° 19:49:54 10° 95° (E) 2,552 7.0 -4.1°
Enters shadow 19:51:22 - 102° (ESE) 2,986 7.4 -4.3°
Sets 19:52:48 0° 108° (ESE) 3,450 - -4.6°
